Satellite-Ground Cal/Val Region Overpasses Predictions

Prediction of Satellite NPP Overpassing Cal/Val Region: PacNW

Region Location: (Latitude: 10.00, Longitude: 139.50) to (Latitude: 22.70, Longitude: 165.60).

Table of predicted overpasses for the next 14.0 days since TLE Epoch: 12/26/2012
Interval Starting Time Starting Location Ending Time Ending Location
1 12/26/2012 14:56:26 ( 22.67, 160.34) 12/26/2012 15:00:01 ( 10.05, 157.33)
2 12/27/2012 02:08:14 ( 19.66, 165.59) 12/27/2012 02:09:05 ( 22.65, 164.85)
3 12/27/2012 03:47:00 ( 10.03, 142.48) 12/27/2012 03:50:33 ( 22.54, 139.51)
4 12/27/2012 14:37:23 ( 22.69, 165.10) 12/27/2012 14:40:59 ( 10.01, 162.08)
5 12/27/2012 16:18:53 ( 22.68, 139.72) 12/27/2012 16:19:08 ( 21.80, 139.50)
6 12/28/2012 03:27:58 ( 10.01, 147.25) 12/28/2012 03:31:34 ( 22.69, 144.23)
7 12/28/2012 15:59:52 ( 22.64, 144.47) 12/28/2012 16:03:27 ( 10.02, 141.47)
8 12/29/2012 03:08:56 ( 10.05, 152.00) 12/29/2012 03:12:31 ( 22.67, 148.99)
9 12/29/2012 15:40:49 ( 22.66, 149.24) 12/29/2012 15:44:24 ( 10.04, 146.23)
10 12/30/2012 02:49:54 ( 10.03, 156.76) 12/30/2012 02:53:29 ( 22.65, 153.76)
11 12/30/2012 15:21:47 ( 22.68, 154.00) 12/30/2012 15:25:22 ( 10.06, 151.00)
12 12/31/2012 02:30:52 ( 10.02, 161.52) 12/31/2012 02:34:28 ( 22.69, 158.51)
13 12/31/2012 15:02:44 ( 22.70, 158.77) 12/31/2012 15:06:20 ( 10.02, 155.75)
14 01/01/2013 02:12:40 ( 12.99, 165.60) 01/01/2013 02:15:25 ( 22.68, 163.27)
15 01/01/2013 03:53:19 ( 10.00, 140.91) 01/01/2013 03:55:02 ( 16.05, 139.51)
16 01/01/2013 14:43:43 ( 22.66, 163.52) 01/01/2013 14:47:18 ( 10.03, 160.51)
17 01/02/2013 03:34:18 ( 10.04, 145.66) 01/02/2013 03:37:53 ( 22.66, 142.66)
18 01/02/2013 14:27:51 ( 11.46, 165.60) 01/02/2013 14:28:15 ( 10.05, 165.28)
19 01/02/2013 16:06:10 ( 22.67, 142.90) 01/02/2013 16:09:45 ( 10.05, 139.90)
20 01/03/2013 03:15:15 ( 10.03, 150.43) 01/03/2013 03:18:50 ( 22.65, 147.42)
21 01/03/2013 15:47:08 ( 22.69, 147.67) 01/03/2013 15:50:44 ( 10.00, 144.65)
22 01/04/2013 02:56:13 ( 10.01, 155.19) 01/04/2013 02:59:49 ( 22.69, 152.17)
23 01/04/2013 15:28:06 ( 22.64, 152.42) 01/04/2013 15:31:41 ( 10.02, 149.41)
24 01/05/2013 02:37:11 ( 10.05, 159.94) 01/05/2013 02:40:46 ( 22.67, 156.94)
25 01/05/2013 15:09:04 ( 22.66, 157.18) 01/05/2013 15:12:39 ( 10.04, 154.18)
26 01/06/2013 02:18:09 ( 10.03, 164.70) 01/06/2013 02:21:44 ( 22.65, 161.70)
27 01/06/2013 14:50:01 ( 22.68, 161.95) 01/06/2013 14:53:37 ( 10.00, 158.93)
28 01/07/2013 03:40:36 ( 10.02, 144.09) 01/07/2013 03:44:12 ( 22.70, 141.07)
29 01/07/2013 14:32:17 ( 18.12, 165.59) 01/07/2013 14:34:35 ( 10.02, 163.69)
30 01/07/2013 16:12:29 ( 22.69, 141.33) 01/07/2013 16:14:37 ( 15.18, 139.51)
31 01/08/2013 03:21:35 ( 10.06, 148.84) 01/08/2013 03:25:10 ( 22.68, 145.84)
32 01/08/2013 15:53:28 ( 22.65, 146.08) 01/08/2013 15:57:03 ( 10.03, 143.08)


NCC Satellite Cal/Val Overpasses Prediction Service
